| time (UTC) | temp F | wind direction | speed MPH | gust MPH | rain 1hr in | rain 24hr in | rain mn in | humidity % | barometer mb |
| 20260901064033 | 68 | 0.0 | 1.0 | 0.00 | 0.01 | 0.00 | 92 | 1016.6 | |
| 20260901063035 | 68 | 0.0 | 0.0 | 0.00 | 0.01 | 0.00 | 92 | 1016.6 | |
| 20260901062031 | 68 | 0.0 | 0.0 | 0.00 | 0.01 | 0.00 | 92 | 1016.6 | |
| 20260901061042 | 68 | 0.0 | 0.0 | 0.00 | 0.01 | 0.00 | 92 | 1016.6 | |
| 20260901060023 | 68 | 0.0 | 0.0 | 0.00 | 0.01 | 0.00 | 92 | 1016.5 | |
| 20260901055044 | 68 | 0.0 | 0.0 | 0.00 | 0.01 | 0.00 | 91 | 1016.7 | |
| 20260901054042 | 69 | 0.0 | 0.0 | 0.00 | 0.01 | 0.00 | 90 | 1017.0 | |
| 20260901053026 | 69 | 0.0 | 1.0 | 0.00 | 0.01 | 0.00 | 89 | 1017.0 | |
| 20260901052034 | 70 | 0.0 | 2.0 | 0.00 | 0.01 | 0.00 | 85 | 1017.2 | |
| 20260901051017 | 70 | 0.0 | 4.0 | 0.00 | 0.01 | 0.00 | 84 | 1017.2 | |
| 20260901050105 | 70 | 0.0 | 3.0 | 0.00 | 0.01 | 0.00 | 83 | 1017.1 | |
| 20260901045038 | 70 | 0.0 | 1.0 | 0.00 | 0.01 | 0.00 | 82 | 1017.0 | |
| 20260901044032 | 70 | 0.0 | 1.0 | 0.00 | 0.01 | 0.00 | 81 | 1017.0 | |
| 20260901043034 | 70 | 0.0 | 2.0 | 0.00 | 0.01 | 0.00 | 81 | 1017.0 | |
| 20260901042031 | 70 | 225 | 1.0 | 4.0 | 0.00 | 0.01 | 0.00 | 80 | 1017.1 |
| 20260901041022 | 70 | 0.0 | 1.0 | 0.00 | 0.01 | 0.00 | 79 | 1017.0 | |
| 20260901040041 | 70 | 0.0 | 2.0 | 0.00 | 0.01 | 0.01 | 79 | 1017.2 | |
| 20260901035048 | 70 | 0.0 | 2.0 | 0.00 | 0.01 | 0.01 | 79 | 1017.2 | |
| 20260901034028 | 70 | 0.0 | 0.0 | 0.00 | 0.01 | 0.01 | 78 | 1017.3 | |
| 20260901033021 | 71 | 0.0 | 1.0 | 0.00 | 0.01 | 0.01 | 77 | 1017.2 | |
| 20260901032020 | 71 | 0.0 | 0.0 | 0.00 | 0.01 | 0.01 | 77 | 1017.3 | |
| 20260901031017 | 71 | 0.0 | 1.0 | 0.00 | 0.01 | 0.01 | 77 | 1017.3 | |
| 20260901030017 | 71 | 0.0 | 1.0 | 0.00 | 0.01 | 0.01 | 76 | 1017.4 | |
| 20260901025037 | 71 | 0.0 | 4.0 | 0.00 | 0.01 | 0.01 | 76 | 1017.3 | |
| 20260901024021 | 71 | 0.0 | 4.0 | 0.00 | 0.01 | 0.01 | 77 | 1017.4 | |
| 20260901023024 | 71 | 225 | 1.0 | 5.0 | 0.00 | 0.01 | 0.01 | 77 | 1017.3 |
| 20260901022029 | 72 | 0.0 | 1.0 | 0.00 | 0.01 | 0.01 | 77 | 1017.2 | |
| 20260901021017 | 72 | 0.0 | 2.0 | 0.00 | 0.01 | 0.01 | 77 | 1017.2 | |
| 20260901020016 | 72 | 0.0 | 2.0 | 0.00 | 0.01 | 0.01 | 77 | 1017.2 | |
| 20260901015018 | 72 | 225 | 1.0 | 5.0 | 0.00 | 0.01 | 0.01 | 76 | 1017.1 |
| 20260901014037 | 72 | 0.0 | 0.0 | 0.00 | 0.01 | 0.01 | 74 | 1017.3 | |
| 20260901013016 | 73 | 0.0 | 1.0 | 0.00 | 0.01 | 0.01 | 72 | 1017.3 | |
| 20260901012016 | 73 | 0.0 | 0.0 | 0.00 | 0.01 | 0.01 | 72 | 1017.3 | |
| 20260901011016 | 73 | 0.0 | 1.0 | 0.00 | 0.01 | 0.01 | 71 | 1017.4 | |
| 20260901010018 | 73 | 0.0 | 1.0 | 0.00 | 0.01 | 0.01 | 69 | 1017.4 | |
| 20260901005016 | 74 | 0.0 | 3.0 | 0.00 | 0.04 | 0.01 | 68 | 1017.3 | |
| 20260901004017 | 74 | 248 | 1.0 | 5.0 | 0.00 | 0.14 | 0.01 | 67 | 1017.4 |
| 20260901003018 | 74 | 0.0 | 3.0 | 0.00 | 0.16 | 0.01 | 67 | 1017.3 | |
| 20260901002021 | 74 | 0.0 | 1.0 | 0.00 | 0.16 | 0.01 | 67 | 1017.2 | |
| 20260901001117 | 74 | 225 | 1.0 | 5.0 | 0.00 | 0.16 | 0.01 | 66 | 1017.1 |
| 20260901000049 | 74 | 0.0 | 2.0 | 0.00 | 0.16 | 0.01 | 67 | 1017.0 | |
| 20260831235017 | 74 | 0.0 | 4.0 | 0.00 | 0.16 | 0.01 | 68 | 1017.0 | |
| 20260831234019 | 74 | 0.0 | 1.0 | 0.00 | 0.16 | 0.01 | 70 | 1017.0 | |
| 20260831233020 | 75 | 293 | 1.0 | 6.0 | 0.00 | 0.16 | 0.01 | 69 | 1017.1 |
| 20260831232018 | 75 | 0.0 | 4.0 | 0.00 | 0.16 | 0.01 | 70 | 1017.2 | |
| 20260831231023 | 75 | 0.0 | 1.0 | 0.00 | 0.16 | 0.01 | 70 | 1017.3 | |
| 20260831230018 | 75 | 0.0 | 0.0 | 0.00 | 0.16 | 0.01 | 70 | 1017.4 | |
| 20260831225037 | 75 | 0.0 | 0.0 | 0.00 | 0.16 | 0.01 | 70 | 1017.3 | |
| 20260831224037 | 75 | 0.0 | 0.0 | 0.00 | 0.16 | 0.01 | 69 | 1017.4 | |
| 20260831223018 | 76 | 0.0 | 1.0 | 0.00 | 0.16 | 0.01 | 68 | 1017.4 | |
| 20260831222018 | 76 | 0.0 | 0.0 | 0.00 | 0.16 | 0.01 | 66 | 1017.5 | |
| 20260831221025 | 76 | 0.0 | 0.0 | 0.00 | 0.16 | 0.01 | 67 | 1017.5 | |
| 20260831220016 | 76 | 0.0 | 0.0 | 0.00 | 0.16 | 0.01 | 65 | 1017.4 | |
| 20260831215016 | 76 | 0.0 | 0.0 | 0.00 | 0.16 | 0.01 | 65 | 1017.5 | |
| 20260831214017 | 76 | 0.0 | 1.0 | 0.00 | 0.16 | 0.01 | 65 | 1017.5 | |
| 20260831213038 | 77 | 0.0 | 0.0 | 0.00 | 0.16 | 0.01 | 64 | 1017.5 | |
| 20260831212021 | 77 | 0.0 | 1.0 | 0.00 | 0.16 | 0.01 | 62 | 1017.4 | |
| 20260831211021 | 77 | 0.0 | 0.0 | 0.00 | 0.16 | 0.01 | 62 | 1017.4 | |
| 20260831210016 | 77 | 0.0 | 1.0 | 0.00 | 0.16 | 0.01 | 61 | 1017.3 | |
| 20260831205034 | 77 | 0.0 | 1.0 | 0.00 | 0.16 | 0.01 | 60 | 1017.5 | |
| 20260831204017 | 78 | 0.0 | 2.0 | 0.00 | 0.16 | 0.01 | 60 | 1017.5 | |
| 20260831203016 | 78 | 293 | 1.0 | 5.0 | 0.00 | 0.16 | 0.01 | 59 | 1017.5 |
| 20260831202024 | 78 | 0.0 | 1.0 | 0.00 | 0.16 | 0.01 | 58 | 1017.5 | |
| 20260831201038 | 78 | 0.0 | 2.0 | 0.00 | 0.16 | 0.01 | 58 | 1017.7 | |
| 20260831200016 | 78 | 0.0 | 4.0 | 0.00 | 0.16 | 0.01 | 58 | 1017.8 | |
| 20260831195039 | 78 | 0.0 | 4.0 | 0.00 | 0.16 | 0.01 | 59 | 1017.9 | |
| 20260831194017 | 77 | 0.0 | 1.0 | 0.00 | 0.16 | 0.01 | 60 | 1018.0 | |
| 20260831193016 | 77 | 0.0 | 2.0 | 0.00 | 0.16 | 0.01 | 58 | 1018.0 | |
| 20260831192036 | 78 | 0.0 | 2.0 | 0.00 | 0.16 | 0.01 | 59 | 1017.9 | |
| 20260831191017 | 78 | 0.0 | 2.0 | 0.00 | 0.16 | 0.01 | 57 | 1018.2 | |
| 20260831190016 | 78 | 0.0 | 1.0 | 0.00 | 0.16 | 0.01 | 56 | 1018.4 | |
| 20260831185016 | 78 | 0.0 | 4.0 | 0.00 | 0.16 | 0.01 | 59 | 1018.5 | |
| 20260831184019 | 78 | 0.0 | 1.0 | 0.00 | 0.16 | 0.01 | 57 | 1018.4 | |
| 20260831183018 | 77 | 0.0 | 2.0 | 0.00 | 0.16 | 0.01 | 57 | 1018.7 | |
| 20260831182057 | 77 | 0.0 | 1.0 | 0.00 | 0.16 | 0.01 | 57 | 1018.7 | |
| 20260831181019 | 77 | 0.0 | 1.0 | 0.00 | 0.16 | 0.01 | 55 | 1018.6 | |
| 20260831180018 | 77 | 0.0 | 1.0 | 0.00 | 0.16 | 0.01 | 53 | 1018.6 | |
| 20260831175018 | 78 | 0.0 | 2.0 | 0.00 | 0.16 | 0.01 | 52 | 1018.7 | |
| 20260831174018 | 78 | 0.0 | 2.0 | 0.00 | 0.16 | 0.01 | 53 | 1018.8 | |
| 20260831173018 | 79 | 270 | 1.0 | 3.0 | 0.00 | 0.16 | 0.01 | 52 | 1019.0 |
| 20260831172017 | 79 | 0.0 | 2.0 | 0.00 | 0.16 | 0.01 | 54 | 1019.0 | |
| 20260831171018 | 79 | 0.0 | 1.0 | 0.00 | 0.16 | 0.01 | 56 | 1019.1 | |
| 20260831170117 | 80 | 0.0 | 1.0 | 0.00 | 0.16 | 0.01 | 54 | 1019.4 | |
| 20260831165017 | 80 | 0.0 | 0.0 | 0.00 | 0.16 | 0.01 | 54 | 1019.3 | |
| 20260831164023 | 79 | 0.0 | 1.0 | 0.00 | 0.16 | 0.01 | 56 | 1019.5 | |
| 20260831163038 | 78 | 0.0 | 1.0 | 0.00 | 0.16 | 0.01 | 56 | 1019.6 | |
| 20260831162019 | 78 | 0.0 | 1.0 | 0.00 | 0.16 | 0.01 | 57 | 1019.5 | |
| 20260831161022 | 77 | 0.0 | 0.0 | 0.00 | 0.16 | 0.01 | 58 | 1019.8 | |
| 20260831160018 | 77 | 45 | 1.0 | 4.0 | 0.00 | 0.16 | 0.01 | 56 | 1019.8 |
| 20260831155018 | 78 | 0.0 | 1.0 | 0.00 | 0.16 | 0.01 | 57 | 1019.8 | |
| 20260831154021 | 77 | 0.0 | 1.0 | 0.00 | 0.16 | 0.01 | 61 | 1019.8 | |
| 20260831153017 | 76 | 0.0 | 0.0 | 0.00 | 0.16 | 0.01 | 62 | 1019.8 | |
| 20260831152025 | 76 | 0.0 | 5.0 | 0.00 | 0.16 | 0.01 | 64 | 1019.7 | |
| 20260831151019 | 75 | 0.0 | 1.0 | 0.00 | 0.16 | 0.01 | 68 | 1019.8 | |
| 20260831150017 | 75 | 0.0 | 1.0 | 0.00 | 0.16 | 0.01 | 70 | 1019.8 | |
| 20260831145017 | 74 | 0.0 | 1.0 | 0.00 | 0.16 | 0.01 | 73 | 1020.0 | |
| 20260831144020 | 73 | 0.0 | 0.0 | 0.00 | 0.16 | 0.01 | 75 | 1019.9 | |
| 20260831143026 | 73 | 0.0 | 1.0 | 0.00 | 0.16 | 0.01 | 76 | 1019.9 | |
| 20260831142018 | 72 | 0.0 | 3.0 | 0.00 | 0.16 | 0.01 | 77 | 1019.8 | |
| 20260831141020 | 71 | 0.0 | 4.0 | 0.00 | 0.16 | 0.01 | 77 | 1019.9 | |
| 20260831140018 | 71 | 0.0 | 0.0 | 0.00 | 0.16 | 0.01 | 81 | 1019.7 | |
| 20260831135018 | 70 | 0.0 | 1.0 | 0.00 | 0.16 | 0.01 | 83 | 1019.6 | |
| 20260831134037 | 70 | 0.0 | 0.0 | 0.00 | 0.16 | 0.01 | 85 | 1019.8 | |
| 20260831133018 | 69 | 0.0 | 1.0 | 0.00 | 0.16 | 0.01 | 84 | 1019.7 | |
| 20260831132036 | 69 | 0.0 | 1.0 | 0.00 | 0.16 | 0.01 | 88 | 1019.6 | |
| 20260831131021 | 68 | 0.0 | 1.0 | 0.00 | 0.16 | 0.01 | 90 | 1019.7 | |
| 20260831130017 | 68 | 0.0 | 0.0 | 0.00 | 0.16 | 0.01 | 94 | 1019.8 | |
| 20260831125017 | 67 | 0.0 | 0.0 | 0.00 | 0.16 | 0.01 | 95 | 1019.7 | |
| 20260831124022 | 66 | 0.0 | 1.0 | 0.00 | 0.16 | 0.01 | 96 | 1019.7 | |
| 20260831123026 | 65 | 0.0 | 0.0 | 0.00 | 0.16 | 0.01 | 97 | 1019.7 | |
| 20260831122029 | 65 | 0.0 | 0.0 | 0.00 | 0.16 | 0.01 | 97 | 1019.8 | |
| 20260831121019 | 64 | 0.0 | 0.0 | 0.00 | 0.16 | 0.01 | 97 | 1019.8 | |
| 20260831120043 | 64 | 0.0 | 0.0 | 0.01 | 0.16 | 0.01 | 97 | 1019.7 | |
| 20260831115021 | 63 | 0.0 | 0.0 | 0.01 | 0.16 | 0.01 | 97 | 1019.6 | |
| 20260831114021 | 63 | 0.0 | 0.0 | 0.01 | 0.16 | 0.01 | 97 | 1019.5 | |
| 20260831113017 | 63 | 0.0 | 0.0 | 0.01 | 0.16 | 0.01 | 97 | 1019.4 | |
| 20260831112031 | 62 | 0.0 | 0.0 | 0.01 | 0.16 | 0.01 | 97 | 1019.3 | |
| 20260831111019 | 62 | 0.0 | 0.0 | 0.01 | 0.16 | 0.01 | 97 | 1019.1 | |
| 20260831110018 | 62 | 0.0 | 0.0 | 0.00 | 0.15 | 0.00 | 97 | 1019.0 | |
| 20260831105020 | 62 | 0.0 | 0.0 | 0.00 | 0.15 | 0.00 | 97 | 1018.9 | |
| 20260831104022 | 61 | 0.0 | 0.0 | 0.00 | 0.15 | 0.00 | 97 | 1018.9 | |
| 20260831103040 | 61 | 0.0 | 0.0 | 0.00 | 0.15 | 0.00 | 97 | 1018.8 | |
| 20260831102024 | 61 | 0.0 | 0.0 | 0.00 | 0.15 | 0.00 | 97 | 1018.5 | |
| 20260831101024 | 61 | 0.0 | 0.0 | 0.00 | 0.15 | 0.00 | 97 | 1018.5 | |
| 20260831100023 | 61 | 0.0 | 0.0 | 0.00 | 0.15 | 0.00 | 97 | 1018.5 | |
| 20260831095043 | 61 | 0.0 | 0.0 | 0.00 | 0.15 | 0.00 | 97 | 1018.3 | |
| 20260831094017 | 61 | 0.0 | 0.0 | 0.00 | 0.15 | 0.00 | 97 | 1018.4 | |
| 20260831093017 | 61 | 0.0 | 0.0 | 0.00 | 0.15 | 0.00 | 97 | 1018.5 | |
| 20260831092017 | 61 | 0.0 | 0.0 | 0.00 | 0.15 | 0.00 | 96 | 1018.5 | |
| 20260831091057 | 61 | 0.0 | 0.0 | 0.00 | 0.15 | 0.00 | 96 | 1018.4 | |
| 20260831090017 | 61 | 0.0 | 0.0 | 0.00 | 0.15 | 0.00 | 96 | 1018.3 | |
| 20260831085038 | 61 | 0.0 | 0.0 | 0.00 | 0.15 | 0.00 | 96 | 1018.1 | |
| 20260831084018 | 61 | 0.0 | 0.0 | 0.00 | 0.15 | 0.00 | 96 | 1018.2 | |
| 20260831083016 | 62 | 0.0 | 0.0 | 0.00 | 0.15 | 0.00 | 96 | 1018.2 | |
| 20260831082026 | 62 | 0.0 | 0.0 | 0.00 | 0.15 | 0.00 | 96 | 1018.1 | |
| 20260831081016 | 62 | 0.0 | 0.0 | 0.00 | 0.15 | 0.00 | 96 | 1018.1 | |
| 20260831080020 | 62 | 0.0 | 0.0 | 0.00 | 0.15 | 0.00 | 96 | 1017.9 | |
| 20260831075036 | 62 | 0.0 | 0.0 | 0.00 | 0.15 | 0.00 | 96 | 1018.1 | |
| 20260831074016 | 62 | 0.0 | 0.0 | 0.00 | 0.15 | 0.00 | 96 | 1018.1 | |
| 20260831073020 | 62 | 0.0 | 0.0 | 0.00 | 0.15 | 0.00 | 96 | 1018.1 | |
| 20260831072017 | 63 | 0.0 | 0.0 | 0.00 | 0.15 | 0.00 | 96 | 1018.1 | |
| 20260831071020 | 63 | 0.0 | 0.0 | 0.00 | 0.15 | 0.00 | 96 | 1017.9 | |
| 20260831070017 | 63 | 0.0 | 0.0 | 0.00 | 0.15 | 0.00 | 95 | 1017.8 | |
| 20260831065039 | 63 | 0.0 | 0.0 | 0.00 | 0.15 | 0.00 | 95 | 1017.7 |